TimeEAT,TemperatureF,Dew PointF,Humidity,Sea Level PressureIn,VisibilityMPH,Wind Direction,Wind SpeedMPH,Gust SpeedMPH,PrecipitationIn,Events,Conditions,WindDirDegrees,DateUTC
12:00 AM,78.8,73.4,83,29.89,6.2,NNE,5.8,-,N/A,,Mostly Cloudy,30,2013-02-02 21:00:00
1:00 AM,78.8,75.2,89,29.86,6.2,NNE,6.9,-,N/A,,Mostly Cloudy,30,2013-02-02 22:00:00
2:00 AM,78.8,75.2,89,29.86,6.2,NNE,5.8,-,N/A,,Mostly Cloudy,30,2013-02-02 23:00:00
3:00 AM,78,74,83,29.85,19,North,5.8,,,,Scattered Clouds,0,2013-02-03 00:00:00
4:00 AM,78.8,73.4,83,29.86,6.2,Calm,Calm,-,N/A,,Partly Cloudy,0,2013-02-03 01:00:00
5:00 AM,77.0,73.4,89,29.86,6.2,NNW,5.8,-,N/A,,Mostly Cloudy,330,2013-02-03 02:00:00
6:00 AM,77.0,71.6,83,29.89,6.2,Calm,Calm,-,N/A,,Mostly Cloudy,0,2013-02-03 03:00:00
7:00 AM,77.0,73.4,89,29.92,6.2,NNW,6.9,-,N/A,,Mostly Cloudy,330,2013-02-03 04:00:00
8:00 AM,78.8,73.4,83,29.95,6.2,North,8.1,-,N/A,,Mostly Cloudy,350,2013-02-03 05:00:00
9:00 AM,81,72,68,29.95,19,North,12.7,,,,Partly Cloudy,350,2013-02-03 06:00:00
9:00 AM,80.6,71.6,74,29.95,6.2,North,12.7,-,N/A,,Mostly Cloudy,350,2013-02-03 06:00:00
10:00 AM,84.2,69.8,62,29.95,6.2,North,11.5,-,N/A,,Mostly Cloudy,10,2013-02-03 07:00:00
11:00 AM,86.0,69.8,58,29.95,6.2,NNE,10.4,-,N/A,,Mostly Cloudy,30,2013-02-03 08:00:00
12:00 PM,87.8,71.6,58,29.92,6.2,West,12.7,-,N/A,,Mostly Cloudy,260,2013-02-03 09:00:00
1:00 PM,84.2,71.6,66,29.89,6.2,SSE,11.5,-,N/A,,Mostly Cloudy,150,2013-02-03 10:00:00
3:00 PM,86,70,50,29.85,19,East,15.0,,,,Partly Cloudy,80,2013-02-03 12:00:00
3:00 PM,86.0,69.8,58,29.83,6.2,East,15.0,-,N/A,,Mostly Cloudy,80,2013-02-03 12:00:00
4:00 PM,87.8,69.8,55,29.83,6.2,East,11.5,-,N/A,,Scattered Clouds,80,2013-02-03 13:00:00
5:00 PM,86.0,69.8,58,29.83,6.2,East,19.6,-,N/A,,Scattered Clouds,80,2013-02-03 14:00:00
6:00 PM,82.4,71.6,70,29.83,6.2,ENE,15.0,-,N/A,,Mostly Cloudy,70,2013-02-03 15:00:00
7:00 PM,80.6,73.4,79,29.86,6.2,ENE,21.9,-,N/A,,Partly Cloudy,60,2013-02-03 16:00:00
8:00 PM,80.6,75.2,84,29.86,6.2,NE,11.5,-,N/A,,Partly Cloudy,50,2013-02-03 17:00:00
9:00 PM,80,73,74,29.88,19,NNE,9.2,,,,Scattered Clouds,30,2013-02-03 18:00:00
9:00 PM,80.6,73.4,79,29.89,6.2,NNE,9.2,-,N/A,,Partly Cloudy,30,2013-02-03 18:00:00
10:00 PM,78.8,73.4,83,29.89,6.2,NNE,11.5,-,N/A,,Partly Cloudy,30,2013-02-03 19:00:00